Погода Усть-Уса

Погода Усть-Уса : погода сейчас, прогноз погоды и архив. Всё, что Вы хотите узнать о погоде Усть-Уса!

Хотите узнать прогноз погоды Усть-Уса? Тогда Вам сюда: Погода Усть-Уса

Поиск расширенной информации на нашем сайте:

Полезная информация: Брошюровочные машины выбрать и купить, продажа. Брошюровочная машина в каталоге.

Другие новости

Новости СМИ2

Главная страница сайта

Новости сайта

03.07.2017

Напоминаем, что на нашем специализированном сайте Метеоцентр.Азия вы можете получить высокодетализированные автоматические прогнозы погоды по пунктам России, СНГ и мира в авиационном формате (включающие направление и скорость ветра, видимость, явления погоды, количество и форму облачности, нижнюю и верхнюю границу облачности).

Рекомендуем: Актуальная информация дорнит ростов тут.

Погода Усть-Уса - сегодня

Время (UTC), дата Ветер
(°,м/с) 
Видим.   Явления Облачность Т
(°С)
Тd
(°С)
f(%) Тe
(°С)
Pmin
(гПа)
dP
(гПа)
Po
(мм)
O2
(г/м3)
Тmin Tmax R s Состояние
почвы
03 23.07.17 080 (В) 20000 м    4/0 верхняя 
[Ci fib]
+20.1 +12.6 62 +25  1013.2  -0.1  753  280  +15.4        сухая 
06 23.07.17 100 (В) 20000 м    3/0 средняя 
[Ac trans]
+24.8 +13.3 49 +31  1012.9  -0.2  753  276           
09 23.07.17 140 (ЮВ) 20000 м    3/1 1000 м средняя, верхняя 
[Cu hum|Ac trans|Ci fib]
+27 +12.3 40 +31  1012.2  -0.6  753  274           
12 23.07.17 130 (ЮВ) 5-10{10}  20000 м  гроза без осадков  8/6 300 м кучево-дожд., средняя 
[Cb cap|Ac trans]
+26.9 +11 37 +29  1011.3  -0.8  752  274           
15 23.07.17 070 (В) 2{10}  20000 м  {гроза}  9/3 1000 м средняя, верхняя 
[Sc|Ac trans|Cs]
+22.2 +12.2 53 +26  1011.3  -0.2  752  278    +28.4       
18 23.07.17 040 (СВ) 20000 м  {гроза}  8/3 300 м кучево-дожд., средняя, верхняя 
[Cb calv|Ac trans|Ci fib]
+17.9 +13.1 73 +23  1011.9  0.5  752  282           
21 23.07.17 070 (В) 20000 м    4/0 средняя 
[Ac trans]
+15.4 +13.2 87 +22  1011.4  -0.6  752  284           
00 24.07.17 050 (СВ) 20000 м    3/0 средняя 
[Ac trans]
+13.9 +12.7 92 +19  1011.3  -0.2  752  286           
03 24.07.17 030 (СВ) 20000 м    ясно 
+19.4 +13.1 67 +27  1010.4  -0.7  751  280  +13.7        сухая 
06 24.07.17 030 (СВ) 20000 м    ясно 
+25.3 +15.1 53 +34  1009.4  -0.8  750  274           
09 24.07.17 080 (В) 20000 м    3/3 1000 м 
[Cu hum]
+27.7 +9 31 +28  1008.6  -0.7  750  273           
12 24.07.17 080 (В) 20000 м    4/4 1000 м 
[Cu hum]
+27.9 +7.2 27 +28  1007.6  -1  749  273           
15 24.07.17 030 (СВ) 4{10}  20000 м    9/0 верхняя 
[Cs]
+24.1 +11.8 46 +28  1007.6  -0.1  749  275    +28.5       
18 24.07.17 040 (СВ) 20000 м    9/0 верхняя 
[Cs]
+19.7 +12.4 63 +25  1008.1  0.3  749  279           
21 24.07.17 040 (СВ) 20000 м    3/0 верхняя 
[Ci fib]
+17.5 +13.2 76 +24  1008.1  749  281           
00 25.07.17 010 (С) 20000 м    ясно 
+14.6 +12.5 87 +20  1008.7  0.4  750  284           
03 25.07.17 020 (С) 20000 м    ясно 
+18 +13.3 74 +25  1009.1  0.6  750  281  +14.5        сухая 
06 25.07.17 010 (С) 20000 м    ясно 
+22.8 +14.6 60 +31  1008.7  -0.3  750  276           
09 25.07.17 060 (СВ) 20000 м    1/0 
+26.8 +12 40 +31  1008  -0.5  749  273           
12 25.07.17 020 (С) 3{11}  20000 м    8/8 300 м кучево-дожд. 
[Cb calv]
+23.3 +14.8 59 +32  1008.1  -0.1  749  275           
15 25.07.17 320 (СЗ) 20000 м  гроза, ливневой дождь  8/8 300 м кучево-дожд. 
[Cb cap]
+17.9 +15.1 84 +27  1009.4  1.1  750  281    +27.3     
18 25.07.17 020 (С) 20000 м  {гроза, ливн. осадки}  1/1 1000 м 
[Sc]
+17.1 +13.2 78 +23  1009.1  -0.3  750  282           
21 25.07.17 030 (СВ) 20000 м    ясно 
+15.7 +13 84 +20  1008.7  -0.4  750  283           
00 26.07.17 350 (С) 20000 м    ясно 
+13.5 +12.2 92 +18  1009.4  0.7  750  286           
03 26.07.17 010 (С) 20000 м    ясно 
+16.5 +12.6 78 +22  1009.5  0.1  750  283  +13.3        влажная 
Время (UTC), дата Ветер
(°,м/с) 
Видим.   Явления Облачность Т
(°С)
Тd
(°С)
f(%) Тe
(°С)
Pmin
(гПа)
dP
(гПа)
Po
(мм)
O2
(г/м3)
Тmin Tmax R s Состояние
почвы

Для получения пояснительной информации подведите курсор к названию столбца.

ПОГОДА Усть-Уса - архив

Всё, что Вы хотите узнать о погоде Усть-Уса - удобно и подробно!

Выберите нужную дату (начиная с 1 января 2015* года) и нажмите кнопку "Найти".
Будут отображены архивные сводки погоды по пункту Усть-Уса, начиная с указанной даты.


Отображать данные в формате CSV (для использования в таблицах Excel)


Внимание! Наш архив погоды предназначен исключительно для личного некоммерческого использования в познавательных целях. Если Вам необходимы официальные справки о состоянии погоды (для производственных, юридических, коммерческих и т.п. целей), обращайтесь в органы Росгидромета.

*Примечание: данная дата относится к архиву по метеостанциям СССР (Россия, СНГ, Балтия).
Архив по метеостанциям Зарубежной Европы и Азии (кроме Китая) хранится 10 дней, по другим регионам земного шара (Китай, Африка, Америка, Австралия, Океания) - 1 день.

Усть-Уса - район местоположения метеостанции


Название, широта, долгота, высота метеостанции:
Усть-Уса 66°ш. 56.9°д. 78 м над ур. моря [Российская Федерация]

Дополнительная информация

В oтличие oт бoльшинства пoгoдных сайтoв мы публикуем пoдрoбную метеoинфoрмацию в детальнoм прoфессиoнальнoм фoрмате.

Характеристики температуры и влажнoсти вoздуха измеряются на высoте 2 м в тени вдали oт зданий и деревьев.
Скoрoсть ветра измеряется на высoте 10 м (на урoвне рoста челoвека скoрoсть ветра ниже в 1.5-2 раза). Если метеoстанция нахoдится в гoрoде или в лесу, тo скoрoсть ветра занижена на 2-4 м/с пo сравнению с oткрытым местoм. Скoрoсть ветра над акватoриями крупных рек и oзёр, а также на вершинах хoлмoв на 2-5 м/с выше, чем в oбычных услoвиях.
Атмoсфернoе давление в разных тoчках местнoсти мoжет значительнo oтличаться oт давления на метеoстанции, в зависимoсти oт услoвий рельефа (при пoдъёме на 10 м давление пoнижается примернo на 1 мм рт.ст.).